TimePST,TemperatureF,Dew PointF,Humidity,Sea Level PressureIn,VisibilityMPH,Wind Direction,Wind SpeedMPH,Gust SpeedMPH,PrecipitationIn,Events,Conditions,WindDirDegrees,DateUTC
12:52 AM,57.0,35.1,44,30.08,10.0,North,3.5,-,N/A,,Clear,10,2014-01-16 08:52:00
1:52 AM,57.9,34.0,41,30.08,10.0,North,4.6,-,N/A,,Clear,360,2014-01-16 09:52:00
2:52 AM,57.0,28.9,34,30.08,10.0,Calm,Calm,-,N/A,,Clear,0,2014-01-16 10:52:00
3:52 AM,57.9,30.9,36,30.07,10.0,Calm,Calm,-,N/A,,Clear,0,2014-01-16 11:52:00
4:52 AM,55.9,34.0,44,30.07,10.0,North,4.6,-,N/A,,Clear,350,2014-01-16 12:52:00
5:52 AM,54.0,34.0,47,30.08,10.0,Calm,Calm,-,N/A,,Clear,0,2014-01-16 13:52:00
6:52 AM,53.1,32.0,45,30.09,10.0,Calm,Calm,-,N/A,,Clear,0,2014-01-16 14:52:00
7:52 AM,60.1,37.9,44,30.10,10.0,NNW,3.5,-,N/A,,Clear,340,2014-01-16 15:52:00
8:52 AM,68.0,30.0,24,30.12,10.0,North,3.5,-,N/A,,Clear,360,2014-01-16 16:52:00
9:52 AM,78.1,19.9,11,30.12,10.0,North,4.6,-,N/A,,Clear,350,2014-01-16 17:52:00
10:52 AM,86.0,19.0,8,30.09,10.0,Calm,Calm,-,N/A,,Clear,0,2014-01-16 18:52:00
11:52 AM,86.0,17.1,8,30.05,10.0,West,6.9,-,N/A,,Clear,270,2014-01-16 19:52:00
12:52 PM,86.0,14.0,7,30.02,10.0,WNW,10.4,-,N/A,,Clear,300,2014-01-16 20:52:00
1:52 PM,84.9,14.0,7,30.01,10.0,NNW,10.4,-,N/A,,Clear,330,2014-01-16 21:52:00
2:52 PM,81.0,23.0,12,30.00,10.0,NW,12.7,-,N/A,,Clear,320,2014-01-16 22:52:00
3:52 PM,81.0,23.0,12,30.01,10.0,NW,8.1,-,N/A,,Clear,320,2014-01-16 23:52:00
4:52 PM,78.1,19.0,11,30.02,10.0,NNW,8.1,-,N/A,,Clear,340,2014-01-17 00:52:00
5:52 PM,73.0,19.9,14,30.03,10.0,West,4.6,-,N/A,,Clear,270,2014-01-17 01:52:00
6:52 PM,72.0,27.0,19,30.03,10.0,NE,5.8,-,N/A,,Clear,50,2014-01-17 02:52:00
7:52 PM,64.9,39.0,39,30.04,10.0,SSE,3.5,-,N/A,,Clear,160,2014-01-17 03:52:00
8:52 PM,64.0,37.9,38,30.06,10.0,WNW,4.6,-,N/A,,Clear,290,2014-01-17 04:52:00
9:52 PM,62.1,33.1,34,30.06,10.0,NE,3.5,-,N/A,,Clear,40,2014-01-17 05:52:00
10:52 PM,60.1,39.0,46,30.05,10.0,Calm,Calm,-,N/A,,Clear,0,2014-01-17 06:52:00
11:52 PM,57.9,35.1,42,30.04,10.0,Calm,Calm,-,N/A,,Clear,0,2014-01-17 07:52:00